Regional Weather Roundup
Issued by NWS Sioux Falls, SD

Home | Current Version | Previous Version | Graphics & Text | Print | Product List | Glossary On
Versions: 1 2 3 4 5 6 7 8 9 10 11 12 13 14 15 16 17 18 19 20 21 22 23 24 25 26 27 28 29 30 31 32 33 34 35 36 37 38 39 40 41 42 43 44 45 46 47 48 49 50
000
ASUS43 KFSD 291902
RWRFSD

WEATHER ROUNDUP FOR SE SOUTH DAKOTA/SW MINNESOTA/NW IOWA
NATIONAL WEATHER SERVICE SIOUX FALLS SD
200 PM CDT SUN MAY 29 2016

NOTE: "FAIR" INDICATES FEW OR NO CLOUDS BELOW 12,000 FEET WITH NO
SIGNIFICANT WEATHER AND OR OBSTRUCTIONS TO VISIBILITY.


SDZ038>040-050-052>070-292000-
SOUTHEAST SOUTH DAKOTA

CITY           SKY/WX    TMP DP  RH WIND       PRES   REMARKS
BROOKINGS      SUNNY     74  52  46 NW18      30.04S
CHAMBERLAIN    NOT AVBL
HURON          SUNNY     76  51  41 NW8       30.03F
MADISON        FAIR      72  52  49 N15G21    30.07S
MITCHELL       SUNNY     77  49  37 N5        30.06S
SIOUX FALLS    MOSUNNY   76  55  48 NW12      30.06S
WINNER         FAIR      77  52  41 E7        30.06F
YANKTON        SUNNY     75  57  53 NW7       30.05F
$$

MNZ071-072-080-081-089-090-097-098-292000-
SOUTHWEST MINNESOTA

CITY           SKY/WX    TMP DP  RH WIND       PRES   REMARKS
FAIRMONT       MOSUNNY   75  54  46 W17G24    30.02S
JACKSON        MOSUNNY   77  54  44 W16G24    30.04S
LUVERNE        MOSUNNY   75  52  43 W15G23    30.05F
MARSHALL       PTSUNNY   76  56  49 NW16      30.01S
MONTEVIDEO     MOSUNNY   77  57  50 NW7       30.00S
PIPESTONE      SUNNY     73  46  38 NW10G21   30.05S
REDWOOD FALLS  MOSUNNY   77  57  50 W13       29.99S
TRACY          MOSUNNY   75  56  52 W14       30.02S
WINDOM         MOSUNNY   77  54  44 W3G21     30.02F
$$

IAZ001>003-012>014-020>022-031-032-NEZ013-014-SDZ071-292000-
NORTHWEST IOWA

CITY           SKY/WX    TMP DP  RH WIND       PRES   REMARKS
ESTHERVILLE    PTSUNNY   75  62  64 W22G30    30.03F
SIOUX CITY     SUNNY     80  58  46 W9        30.05F
SPENCER        MOSUNNY   77  58  51 W18G26    30.04F
$$

ABBREVIATIONS USED IN REMARKS
   TC - TEMPERATURE IN CELSIUS
  WCI - WIND CHILL INDEX
   HX - HEAT INDEX
  VSB - VISIBILITY




USA.gov is the U.S. government's official web portal to all federal, state and local government web resources and services.